Location: Newark
(39.0083°N, 20.7336°E)
Time: 13:37:48
(UTC+00:00)

ISS - Pass Details

Date: 01 October 2021
Orbit: 417 x 423 km, 51.6° (Epoch: 24 October)

Event Time Altitude Azimuth Distance (km) Brightness Sun altitude
Rises 16:41:47 0° 316° (NW) 2,364 0.8 -5.1°
Reaches altitude 10° 16:44:54 10° 347° (NNW) 1,499 -0.8 -5.7°
Maximum altitude 16:46:25 12° 14° (NNE) 1,357 -1.3 -6.0°
Drops below altitude 10° 16:47:56 10° 41° (NE) 1,499 -1.3 -6.3°
Enters shadow 16:49:27 - 60° (ENE) 1,858 -1.0 -6.6°
